QPF
0.01 0.01 0.01 0.02 0.06 0.08 0.11 0.10 0.07 0.05 0.03 0.03 0.02 0.02 0.03 0.02 0.01 0.01 0.01 0.01 0.00 0.00 0.00 0.00 0.00 0.00 0.00 0.00 0.00 0.00 0.01 0.02 0.01 0.01 0.01 0.04 0.07 0.11 0.19 0.14 0.15 0.13 0.13 0.09
0.00 0.00 0.00 0.01 0.02 0.02 0.02 0.01 0.01 0.00 0.00 0.01 0.01 0.02 0.02 0.02 0.02 0.02 0.02 0.01 0.01 0.00 0.00 0.00 0.00 0.00 0.00 0.00 0.00 0.00 0.02 0.03 0.02 0.01 0.01 0.02 0.04 0.05 0.07 0.09 0.13 0.15 0.15 0.12
0.00 0.00 0.00 0.00 0.00 0.00 0.00 0.01 0.01 0.00 0.00 0.00 0.00 0.00 0.01 0.01 0.02 0.03 0.02 0.02 0.02 0.00 0.00 0.00 0.00 0.00 0.00 0.00 0.00 0.01 0.03 0.03 0.02 0.01 0.01 0.02 0.04 0.07 0.09 0.13 0.15 0.12 0.13 0.13
0.00 0.00 0.00 0.00 0.00 0.00 0.00 0.00 0.00 0.00 0.00 0.00 0.00 0.00 0.00 0.00 0.01 0.01 0.02 0.03 0.02 0.01 0.02 0.03 0.03 0.03 0.02 0.01 0.01 0.02 0.04 0.03 0.03 0.01 0.00 0.01 0.01 0.04 0.05 0.07 0.07 0.07 0.11 0.09
0.00 0.00 0.00 0.00 0.00 0.00 0.00 0.00 0.00 0.00 0.00 0.00 0.00 0.00 0.00 0.00 0.00 0.01 0.02 0.03 0.02 0.02 0.03 0.06 0.09 0.09 0.10 0.08 0.05 0.06 0.06 0.04 0.02 0.01 0.00 0.00 0.01 0.06 0.05 0.03 0.04 0.07 0.08 0.07
0.00 0.00 0.00 0.00 0.00 0.00 0.01 0.02 0.02 0.02 0.01 0.00 0.01 0.01 0.00 0.00 0.00 0.00 0.01 0.01 0.01 0.02 0.03 0.08 0.14 0.17 0.19 0.14 0.09 0.07 0.04 0.02 0.00 0.00 0.00 0.00 0.01 0.03 0.04 0.04 0.04 0.04 0.03 0.03
0.00 0.00 0.00 0.00 0.00 0.00 0.03 0.07 0.07 0.04 0.02 0.02 0.02 0.04 0.03 0.01 0.00 0.00 0.00 0.01 0.02 0.03 0.06 0.12 0.20 0.25 0.25 0.17 0.11 0.05 0.01 0.00 0.00 0.00 0.00 0.00 0.00 0.01 0.05 0.11 0.06 0.03 0.02 0.01
0.00 0.00 0.00 0.00 0.00 0.00 0.01 0.04 0.08 0.06 0.03 0.04 0.03 0.05 0.03 0.02 0.01 0.01 0.02 0.03 0.07 0.14 0.18 0.20 0.19 0.21 0.22 0.18 0.10 0.04 0.01 0.00 0.00 0.00 0.00 0.01 0.01 0.01 0.02 0.02 0.01 0.00 0.01 0.01
0.00 0.00 0.00 0.00 0.00 0.00 0.01 0.02 0.06 0.11 0.08 0.04 0.03 0.04 0.05 0.05 0.03 0.04 0.05 0.07 0.13 0.24 0.35 0.36 0.26 0.19 0.11 0.07 0.04 0.02 0.01 0.00 0.00 0.00 0.00 0.00 0.01 0.01 0.01 0.00 0.00 0.00 0.00 0.00
0.00 0.00 0.00 0.00 0.00 0.00 0.02 0.03 0.07 0.09 0.08 0.07 0.06 0.11 0.11 0.11 0.08 0.04 0.06 0.11 0.19 0.29 0.38 0.52 0.54 0.31 0.10 0.04 0.03 0.02 0.00 0.00 0.00 0.00 0.00 0.00 0.00 0.00 0.00 0.00 0.00 0.00 0.00 0.00
0.00 0.00 0.00 0.00 0.00 0.01 0.02 0.04 0.07 0.06 0.03 0.06 0.11 0.20 0.25 0.21 0.15 0.07 0.06 0.08 0.12 0.24 0.43 0.59 0.59 0.27 0.12 0.05 0.03 0.01 0.00 0.00 0.00 0.00 0.01 0.00 0.00 0.01 0.00 0.00 0.00 0.00 0.00 0.00
0.00 0.00 0.00 0.01 0.03 0.03 0.05 0.07 0.10 0.10 0.06 0.04 0.04 0.11 0.17 0.19 0.18 0.09 0.06 0.04 0.03 0.04 0.09 0.19 0.24 0.15 0.08 0.04 0.02 0.02 0.02 0.02 0.01 0.01 0.02 0.02 0.03 0.02 0.01 0.00 0.00 0.00 0.00 0.00
0.00 0.00 0.00 0.01 0.03 0.02 0.06 0.12 0.09 0.13 0.12 0.09 0.12 0.15 0.08 0.05 0.05 0.04 0.04 0.04 0.03 0.02 0.01 0.01 0.04 0.05 0.04 0.02 0.03 0.04 0.06 0.06 0.05 0.04 0.04 0.05 0.05 0.04 0.02 0.01 0.01 0.00 0.01 0.01
0.00 0.00 0.00 0.01 0.03 0.04 0.15 0.23 0.13 0.12 0.14 0.08 0.07 0.05 0.01 0.00 0.00 0.00 0.01 0.02 0.03 0.03 0.02 0.01 0.01 0.02 0.01 0.02 0.04 0.08 0.15 0.19 0.17 0.15 0.12 0.11 0.08 0.06 0.05 0.04 0.05 0.03 0.03 0.03
0.00 0.00 0.00 0.00 0.02 0.06 0.20 0.23 0.14 0.09 0.06 0.03 0.01 0.00 0.00 0.00 0.01 0.01 0.02 0.02 0.01 0.01 0.02 0.02 0.01 0.01 0.01 0.01 0.03 0.12 0.25 0.32 0.30 0.33 0.30 0.22 0.15 0.11 0.11 0.15 0.19 0.15 0.09 0.08
0.00 0.00 0.00 0.00 0.01 0.03 0.07 0.05 0.04 0.03 0.02 0.01 0.00 0.01 0.02 0.02 0.03 0.09 0.16 0.10 0.05 0.04 0.04 0.05 0.04 0.04 0.03 0.03 0.04 0.10 0.21 0.29 0.32 0.37 0.40 0.30 0.25 0.20 0.17 0.21 0.29 0.27 0.16 0.14
0.00 0.00 0.00 0.00 0.00 0.01 0.01 0.02 0.06 0.07 0.05 0.02 0.01 0.02 0.07 0.13 0.25 0.56 0.67 0.42 0.22 0.18 0.16 0.16 0.16 0.15 0.13 0.10 0.09 0.11 0.17 0.23 0.29 0.33 0.33 0.25 0.23 0.30 0.32 0.35 0.34 0.25 0.18 0.21
0.00 0.00 0.00 0.00 0.01 0.02 0.02 0.02 0.08 0.11 0.08 0.04 0.02 0.03 0.07 0.17 0.34 0.53 0.67 0.56 0.36 0.33 0.26 0.22 0.19 0.17 0.13 0.11 0.11 0.12 0.14 0.16 0.19 0.18 0.15 0.12 0.18 0.27 0.28 0.27 0.24 0.20 0.19 0.25
0.00 0.00 0.00 0.01 0.09 0.11 0.02 0.02 0.04 0.06 0.04 0.02 0.01 0.01 0.02 0.06 0.08 0.11 0.18 0.22 0.19 0.15 0.12 0.08 0.05 0.04 0.03 0.02 0.03 0.03 0.02 0.02 0.02 0.02 0.02 0.04 0.05 0.05 0.05 0.05 0.06 0.10 0.14 0.18
0.00 0.00 0.00 0.00 0.03 0.04 0.01 0.00 0.01 0.03 0.06 0.01 0.00 0.00 0.01 0.04 0.07 0.06 0.13 0.09 0.03 0.01 0.01 0.00 0.00 0.00 0.00 0.00 0.00 0.00 0.00 0.00 0.00 0.00 0.00 0.00 0.00 0.00 0.00 0.00 0.01 0.03 0.06 0.08
0.00 0.00 0.00 0.00 0.00 0.00 0.00 0.00 0.00 0.01 0.03 0.00 0.00 0.00 0.00 0.01 0.01 0.02 0.09 0.07 0.00 0.00 0.00 0.00 0.00 0.00 0.00 0.00 0.00 0.00 0.00 0.00 0.00 0.00 0.00 0.00 0.00 0.00 0.00 0.00 0.00 0.00 0.00 0.01
0.00 0.00 0.00 0.00 0.00 0.00 0.00 0.00 0.00 0.00 0.00 0.00 0.00 0.00 0.00 0.00 0.00 0.01 0.04 0.05 0.00 0.00 0.00 0.00 0.00 0.00 0.00 0.00 0.00 0.00 0.00 0.00 0.00 0.00 0.00 0.00 0.00 0.00 0.00 0.00 0.00 0.00 0.00 0.00
0.00 0.00 0.00 0.00 0.00 0.00 0.00 0.00 0.00 0.00 0.00 0.00 0.00 0.00 0.00 0.00 0.00 0.00 0.02 0.06 0.01 0.00 0.00 0.00 0.00 0.00 0.00 0.00 0.00 0.00 0.00 0.00 0.00 0.00 0.00 0.00 0.00 0.00 0.00 0.00 0.00 0.00 0.00 0.00
0.00 0.00 0.00 0.00 0.00 0.00 0.00 0.00 0.00 0.00 0.00 0.00 0.00 0.00 0.00 0.00 0.00 0.00 0.01 0.04 0.02 0.00 0.00 0.00 0.00 0.00 0.00 0.00 0.00 0.00 0.00 0.00 0.00 0.00 0.00 0.00 0.00 0.00 0.00 0.00 0.00 0.00 0.00 0.00
0.00 0.00 0.00 0.00 0.00 0.00 0.00 0.00 0.00 0.00 0.00 0.00 0.00 0.00 0.00 0.00 0.00 0.00 0.00 0.01 0.01 0.00 0.00 0.00 0.00 0.00 0.00 0.00 0.00 0.00 0.00 0.00 0.00 0.00 0.00 0.00 0.00 0.00 0.00 0.00 0.00 0.00 0.00 0.00
0.00 0.00 0.00 0.00 0.00 0.00 0.00 0.00 0.00 0.00 0.00 0.00 0.00 0.00 0.00 0.00 0.00 0.00 0.00 0.00 0.00 0.00 0.00 0.00 0.00 0.00 0.00 0.00 0.00 0.00 0.00 0.00 0.00 0.00 0.00 0.00 0.00 0.00 0.00 0.00 0.00 0.00 0.00 0.00
MSLP
1011.22 1011.80 1012.31 1012.74 1013.11 1013.43 1013.71 1013.96 1014.14 1014.21 1014.15 1013.91 1013.47 1012.83 1012.02 1011.09 1010.10 1009.13 1008.24 1007.48 1006.89 1006.47 1006.23 1006.14 1006.17 1006.31 1006.52 1006.80 1007.15 1007.56 1008.02 1008.54 1009.10 1009.69 1010.27 1010.82 1011.31 1011.71 1012.02 1012.24 1012.39 1012.49 1012.59 1012.72
1011.61 1012.09 1012.50 1012.85 1013.16 1013.47 1013.80 1014.14 1014.44 1014.65 1014.71 1014.55 1014.14 1013.46 1012.55 1011.46 1010.29 1009.13 1008.07 1007.19 1006.52 1006.08 1005.85 1005.81 1005.90 1006.08 1006.33 1006.64 1006.98 1007.38 1007.84 1008.35 1008.92 1009.53 1010.14 1010.72 1011.23 1011.65 1011.95 1012.15 1012.27 1012.35 1012.43 1012.55
1011.90 1012.27 1012.56 1012.80 1013.05 1013.35 1013.72 1014.13 1014.55 1014.90 1015.08 1015.01 1014.64 1013.95 1012.97 1011.77 1010.46 1009.16 1007.98 1006.99 1006.27 1005.81 1005.61 1005.61 1005.76 1006.00 1006.29 1006.61 1006.97 1007.36 1007.80 1008.30 1008.87 1009.47 1010.08 1010.67 1011.18 1011.59 1011.88 1012.07 1012.17 1012.23 1012.30 1012.42
1012.20 1012.44 1012.60 1012.74 1012.92 1013.19 1013.58 1014.06 1014.58 1015.04 1015.33 1015.36 1015.05 1014.38 1013.38 1012.13 1010.74 1009.35 1008.08 1007.03 1006.26 1005.79 1005.60 1005.63 1005.82 1006.10 1006.43 1006.77 1007.12 1007.50 1007.92 1008.40 1008.93 1009.51 1010.09 1010.66 1011.15 1011.54 1011.82 1012.00 1012.09 1012.14 1012.21 1012.33
1012.61 1012.72 1012.75 1012.79 1012.89 1013.12 1013.51 1014.04 1014.63 1015.18 1015.57 1015.69 1015.45 1014.84 1013.86 1012.60 1011.19 1009.76 1008.44 1007.36 1006.56 1006.08 1005.88 1005.93 1006.13 1006.42 1006.76 1007.10 1007.44 1007.79 1008.17 1008.60 1009.09 1009.61 1010.15 1010.67 1011.13 1011.51 1011.77 1011.93 1012.03 1012.08 1012.15 1012.26
1013.20 1013.19 1013.12 1013.05 1013.08 1013.27 1013.64 1014.17 1014.79 1015.40 1015.86 1016.05 1015.89 1015.35 1014.43 1013.22 1011.83 1010.41 1009.10 1008.00 1007.19 1006.68 1006.47 1006.49 1006.67 1006.94 1007.25 1007.56 1007.86 1008.17 1008.50 1008.87 1009.29 1009.75 1010.23 1010.70 1011.12 1011.46 1011.71 1011.88 1011.98 1012.05 1012.12 1012.23
1014.00 1013.90 1013.74 1013.59 1013.54 1013.67 1013.99 1014.49 1015.11 1015.72 1016.22 1016.47 1016.38 1015.91 1015.08 1013.95 1012.63 1011.27 1009.99 1008.90 1008.07 1007.54 1007.28 1007.24 1007.37 1007.58 1007.83 1008.08 1008.33 1008.57 1008.84 1009.14 1009.49 1009.88 1010.30 1010.71 1011.09 1011.40 1011.65 1011.82 1011.93 1012.02 1012.11 1012.22
1014.99 1014.82 1014.58 1014.37 1014.25 1014.30 1014.55 1014.99 1015.56 1016.15 1016.63 1016.90 1016.87 1016.48 1015.75 1014.72 1013.50 1012.22 1011.00 1009.93 1009.10 1008.52 1008.19 1008.08 1008.11 1008.23 1008.40 1008.57 1008.74 1008.92 1009.11 1009.34 1009.62 1009.95 1010.30 1010.67 1011.01 1011.31 1011.55 1011.74 1011.88 1011.99 1012.10 1012.22
1016.06 1015.85 1015.57 1015.30 1015.12 1015.10 1015.27 1015.62 1016.10 1016.62 1017.06 1017.32 1017.32 1016.99 1016.35 1015.43 1014.33 1013.14 1011.99 1010.95 1010.10 1009.48 1009.07 1008.85 1008.78 1008.79 1008.85 1008.93 1009.02 1009.13 1009.26 1009.44 1009.66 1009.93 1010.24 1010.56 1010.88 1011.17 1011.42 1011.62 1011.78 1011.93 1012.05 1012.19
1017.10 1016.87 1016.58 1016.28 1016.05 1015.96 1016.04 1016.29 1016.67 1017.09 1017.46 1017.68 1017.67 1017.39 1016.83 1016.01 1015.02 1013.92 1012.83 1011.83 1010.97 1010.29 1009.80 1009.47 1009.28 1009.17 1009.13 1009.12 1009.14 1009.19 1009.27 1009.41 1009.59 1009.82 1010.10 1010.40 1010.70 1010.98 1011.24 1011.46 1011.65 1011.81 1011.96 1012.11
1017.99 1017.78 1017.49 1017.18 1016.93 1016.79 1016.80 1016.95 1017.21 1017.52 1017.79 1017.95 1017.93 1017.67 1017.16 1016.42 1015.51 1014.50 1013.47 1012.49 1011.61 1010.88 1010.30 1009.87 1009.57 1009.36 1009.23 1009.15 1009.11 1009.12 1009.18 1009.29 1009.45 1009.67 1009.92 1010.20 1010.49 1010.77 1011.03 1011.26 1011.46 1011.64 1011.80 1011.96
1018.67 1018.49 1018.24 1017.96 1017.71 1017.55 1017.50 1017.56 1017.72 1017.92 1018.10 1018.18 1018.11 1017.85 1017.37 1016.69 1015.84 1014.89 1013.91 1012.94 1012.05 1011.26 1010.61 1010.10 1009.70 1009.41 1009.21 1009.08 1009.01 1009.00 1009.05 1009.16 1009.32 1009.53 1009.77 1010.04 1010.31 1010.57 1010.82 1011.04 1011.24 1011.42 1011.58 1011.73
1019.12 1019.00 1018.81 1018.58 1018.37 1018.21 1018.14 1018.15 1018.23 1018.34 1018.42 1018.43 1018.30 1018.01 1017.53 1016.88 1016.07 1015.16 1014.20 1013.24 1012.34 1011.52 1010.81 1010.23 1009.77 1009.42 1009.18 1009.03 1008.95 1008.94 1009.00 1009.11 1009.28 1009.48 1009.70 1009.95 1010.19 1010.43 1010.65 1010.84 1011.01 1011.17 1011.30 1011.44
1019.40 1019.36 1019.25 1019.10 1018.95 1018.83 1018.76 1018.75 1018.77 1018.81 1018.81 1018.74 1018.56 1018.22 1017.73 1017.08 1016.29 1015.40 1014.45 1013.50 1012.58 1011.74 1011.00 1010.38 1009.89 1009.52 1009.26 1009.11 1009.04 1009.05 1009.12 1009.24 1009.40 1009.58 1009.78 1009.99 1010.19 1010.38 1010.54 1010.69 1010.82 1010.92 1011.02 1011.12
1019.62 1019.66 1019.64 1019.58 1019.51 1019.44 1019.40 1019.39 1019.38 1019.37 1019.31 1019.17 1018.92 1018.54 1018.02 1017.35 1016.56 1015.67 1014.74 1013.79 1012.87 1012.03 1011.28 1010.66 1010.16 1009.80 1009.55 1009.41 1009.37 1009.39 1009.47 1009.58 1009.73 1009.88 1010.03 1010.18 1010.32 1010.44 1010.54 1010.62 1010.68 1010.73 1010.78 1010.83
1019.88 1019.99 1020.06 1020.08 1020.09 1020.10 1020.10 1020.09 1020.07 1020.02 1019.91 1019.71 1019.40 1018.97 1018.40 1017.71 1016.91 1016.02 1015.09 1014.16 1013.26 1012.44 1011.71 1011.11 1010.64 1010.30 1010.08 1009.97 1009.94 1009.97 1010.05 1010.15 1010.25 1010.35 1010.44 1010.52 1010.57 1010.61 1010.64 1010.65 1010.64 1010.63 1010.63 1010.62
1020.27 1020.43 1020.56 1020.66 1020.74 1020.79 1020.83 1020.84 1020.81 1020.72 1020.56 1020.30 1019.94 1019.45 1018.85 1018.12 1017.31 1016.43 1015.52 1014.61 1013.74 1012.96 1012.28 1011.72 1011.30 1011.00 1010.82 1010.73 1010.72 1010.75 1010.81 1010.87 1010.92 1010.96 1010.97 1010.96 1010.93 1010.89 1010.84 1010.78 1010.72 1010.65 1010.59 1010.55
1020.80 1021.00 1021.16 1021.30 1021.41 1021.50 1021.55 1021.56 1021.51 1021.39 1021.18 1020.86 1020.44 1019.91 1019.26 1018.52 1017.69 1016.83 1015.94 1015.07 1014.26 1013.53 1012.91 1012.42 1012.05 1011.81 1011.66 1011.60 1011.60 1011.62 1011.65 1011.66 1011.65 1011.62 1011.55 1011.46 1011.35 1011.24 1011.13 1011.02 1010.91 1010.81 1010.72 1010.63
1021.44 1021.63 1021.80 1021.95 1022.06 1022.14 1022.18 1022.17 1022.08 1021.92 1021.66 1021.29 1020.82 1020.24 1019.56 1018.80 1017.98 1017.13 1016.29 1015.48 1014.73 1014.07 1013.52 1013.10 1012.79 1012.60 1012.49 1012.45 1012.45 1012.46 1012.45 1012.42 1012.35 1012.24 1012.11 1011.95 1011.79 1011.62 1011.47 1011.33 1011.21 1011.09 1010.99 1010.89
1022.08 1022.25 1022.39 1022.50 1022.59 1022.64 1022.64 1022.58 1022.45 1022.23 1021.92 1021.51 1020.99 1020.37 1019.68 1018.92 1018.11 1017.30 1016.50 1015.75 1015.07 1014.49 1014.01 1013.66 1013.41 1013.26 1013.19 1013.16 1013.16 1013.15 1013.11 1013.04 1012.92 1012.77 1012.59 1012.39 1012.19 1012.01 1011.85 1011.71 1011.59 1011.48 1011.38 1011.28
1022.62 1022.72 1022.81 1022.87 1022.90 1022.90 1022.85 1022.75 1022.56 1022.29 1021.93 1021.48 1020.93 1020.30 1019.60 1018.85 1018.07 1017.30 1016.55 1015.86 1015.25 1014.74 1014.33 1014.03 1013.84 1013.72 1013.67 1013.65 1013.65 1013.63 1013.57 1013.48 1013.34 1013.16 1012.96 1012.75 1012.56 1012.38 1012.23 1012.11 1012.01 1011.93 1011.85 1011.76
1022.93 1022.97 1022.98 1022.98 1022.95 1022.90 1022.80 1022.64 1022.41 1022.10 1021.71 1021.23 1020.67 1020.04 1019.35 1018.62 1017.88 1017.16 1016.47 1015.84 1015.29 1014.83 1014.47 1014.21 1014.05 1013.95 1013.91 1013.90 1013.89 1013.87 1013.81 1013.72 1013.58 1013.41 1013.22 1013.04 1012.86 1012.72 1012.60 1012.52 1012.46 1012.41 1012.36 1012.29
1022.94 1022.91 1022.86 1022.80 1022.72 1022.62 1022.48 1022.29 1022.04 1021.72 1021.31 1020.83 1020.28 1019.67 1019.01 1018.32 1017.63 1016.95 1016.31 1015.73 1015.23 1014.80 1014.47 1014.23 1014.08 1013.98 1013.94 1013.93 1013.92 1013.90 1013.86 1013.78 1013.67 1013.54 1013.39 1013.25 1013.12 1013.02 1012.95 1012.91 1012.88 1012.86 1012.84 1012.78
1022.64 1022.55 1022.46 1022.35 1022.24 1022.12 1021.97 1021.77 1021.53 1021.21 1020.83 1020.37 1019.86 1019.28 1018.67 1018.03 1017.38 1016.76 1016.16 1015.62 1015.14 1014.73 1014.40 1014.16 1013.98 1013.88 1013.82 1013.79 1013.78 1013.77 1013.75 1013.71 1013.65 1013.57 1013.48 1013.40 1013.33 1013.28 1013.25 1013.25 1013.25 1013.26 1013.24 1013.19
1022.08 1021.94 1021.81 1021.69 1021.58 1021.47 1021.34 1021.18 1020.96 1020.69 1020.35 1019.94 1019.48 1018.96 1018.40 1017.82 1017.23 1016.64 1016.08 1015.56 1015.09 1014.68 1014.33 1014.05 1013.84 1013.70 1013.61 1013.56 1013.54 1013.54 1013.54 1013.55 1013.54 1013.53 1013.51 1013.50 1013.49 1013.49 1013.50 1013.53 1013.55 1013.56 1013.55 1013.50
1021.31 1021.15 1021.02 1020.91 1020.83 1020.76 1020.68 1020.58 1020.43 1020.22 1019.95 1019.61 1019.21 1018.75 1018.26 1017.73 1017.19 1016.64 1016.11 1015.60 1015.12 1014.69 1014.30 1013.98 1013.71 1013.51 1013.37 1013.29 1013.25 1013.25 1013.28 1013.33 1013.38 1013.44 1013.49 1013.54 1013.59 1013.64 1013.68 1013.72 1013.75 1013.76 1013.74 1013.68
Thickness
5763 5747 5737 5742 5745 5740 5733 5728 5725 5735 5744 5742 5740 5746 5760 5771 5773 5776 5780 5782 5785 5792 5805 5814 5816 5813 5809 5805 5800 5796 5792 5788 5784 5776 5770 5765 5761 5760 5758 5757 5754 5750 5747 5745
5740 5734 5747 5751 5746 5738 5730 5719 5716 5724 5731 5731 5726 5734 5751 5761 5764 5770 5775 5778 5779 5786 5793 5799 5806 5806 5804 5801 5797 5793 5789 5784 5780 5774 5770 5765 5760 5757 5755 5753 5750 5746 5743 5740
5733 5740 5753 5746 5735 5726 5720 5712 5709 5708 5711 5714 5709 5713 5732 5750 5758 5763 5770 5773 5773 5779 5785 5790 5795 5797 5797 5794 5792 5789 5783 5779 5774 5770 5765 5760 5754 5751 5747 5744 5742 5741 5738 5735
5737 5747 5744 5734 5726 5719 5704 5714 5708 5699 5687 5680 5688 5678 5711 5727 5735 5746 5753 5758 5763 5774 5780 5781 5784 5785 5788 5787 5786 5782 5776 5772 5769 5767 5762 5756 5749 5744 5742 5740 5737 5735 5733 5729
5727 5735 5729 5721 5721 5719 5704 5705 5694 5685 5675 5667 5672 5667 5691 5711 5716 5729 5739 5748 5757 5768 5772 5771 5772 5773 5773 5771 5770 5769 5765 5762 5761 5761 5758 5753 5747 5743 5740 5736 5731 5727 5724 5722
5726 5733 5727 5718 5718 5713 5701 5688 5677 5666 5658 5650 5664 5661 5669 5682 5696 5715 5730 5741 5751 5761 5767 5766 5763 5762 5757 5753 5755 5756 5752 5751 5753 5753 5751 5748 5742 5738 5733 5729 5723 5718 5716 5715
5702 5709 5714 5711 5694 5691 5682 5661 5643 5637 5639 5646 5667 5661 5656 5671 5689 5701 5714 5729 5745 5754 5756 5754 5749 5745 5741 5739 5742 5743 5741 5742 5746 5747 5745 5742 5737 5733 5728 5724 5718 5712 5708 5707
5672 5673 5689 5689 5676 5666 5666 5656 5635 5622 5626 5642 5661 5655 5655 5670 5683 5692 5702 5713 5724 5729 5734 5737 5738 5735 5732 5730 5730 5731 5733 5736 5741 5741 5739 5735 5730 5727 5723 5720 5714 5708 5704 5703
5660 5661 5678 5676 5665 5653 5642 5640 5643 5631 5630 5630 5643 5653 5660 5671 5675 5680 5687 5696 5702 5709 5714 5718 5721 5723 5725 5725 5725 5726 5728 5732 5736 5735 5732 5728 5725 5722 5718 5714 5708 5703 5700 5699
5654 5637 5647 5650 5643 5634 5624 5625 5620 5618 5615 5618 5627 5631 5630 5644 5651 5660 5669 5678 5689 5697 5702 5705 5705 5707 5712 5718 5721 5723 5726 5729 5730 5729 5726 5724 5721 5718 5714 5708 5702 5698 5696 5694
5640 5618 5610 5609 5598 5594 5599 5601 5604 5606 5612 5611 5609 5614 5625 5630 5638 5646 5659 5669 5679 5687 5693 5697 5698 5702 5708 5715 5721 5723 5725 5725 5724 5723 5721 5718 5715 5711 5707 5701 5697 5694 5691 5688
5626 5598 5581 5585 5591 5594 5589 5588 5592 5596 5602 5610 5610 5608 5625 5628 5634 5641 5653 5665 5675 5684 5689 5693 5698 5703 5711 5716 5721 5723 5724 5723 5721 5718 5713 5708 5704 5700 5697 5693 5691 5688 5685 5683
5610 5583 5563 5564 5571 5584 5584 5586 5594 5596 5595 5604 5608 5606 5622 5625 5629 5636 5647 5659 5670 5680 5688 5693 5697 5703 5710 5716 5719 5722 5720 5716 5714 5711 5706 5700 5695 5692 5689 5688 5686 5684 5680 5677
5602 5574 5562 5553 5559 5569 5570 5581 5596 5599 5596 5599 5598 5602 5610 5616 5622 5633 5645 5658 5671 5681 5688 5693 5697 5703 5709 5715 5718 5718 5714 5710 5707 5704 5699 5693 5690 5689 5686 5685 5682 5679 5676 5673
5590 5574 5571 5569 5570 5569 5567 5574 5586 5592 5595 5594 5596 5599 5600 5606 5614 5625 5639 5655 5670 5680 5685 5690 5694 5698 5703 5708 5712 5712 5707 5704 5701 5697 5692 5689 5687 5686 5683 5681 5678 5675 5673 5672
5586 5577 5574 5572 5575 5575 5570 5571 5577 5584 5589 5593 5595 5597 5602 5608 5616 5625 5635 5647 5657 5666 5673 5679 5684 5688 5691 5694 5697 5699 5697 5696 5694 5690 5688 5687 5685 5682 5680 5677 5674 5672 5672 5670
5585 5578 5572 5566 5579 5582 5568 5566 5571 5578 5583 5586 5586 5589 5600 5607 5613 5618 5626 5636 5646 5655 5662 5668 5671 5673 5675 5676 5681 5684 5685 5685 5684 5681 5681 5681 5681 5678 5676 5674 5672 5669 5667 5665
5592 5585 5574 5571 5580 5569 5567 5576 5578 5581 5584 5584 5587 5593 5598 5603 5611 5621 5626 5631 5639 5648 5654 5658 5661 5664 5665 5666 5668 5670 5671 5672 5672 5671 5671 5672 5671 5670 5668 5667 5664 5662 5661 5658
5599 5594 5584 5577 5575 5575 5579 5585 5586 5584 5586 5588 5590 5596 5603 5608 5621 5628 5634 5634 5639 5646 5652 5655 5659 5661 5662 5663 5663 5663 5663 5663 5662 5662 5661 5661 5660 5659 5657 5655 5654 5653 5651 5649
5606 5598 5588 5583 5581 5574 5580 5591 5595 5590 5589 5592 5594 5597 5603 5607 5613 5620 5633 5638 5644 5650 5654 5656 5659 5661 5662 5662 5663 5661 5658 5657 5655 5655 5653 5652 5651 5649 5646 5645 5644 5642 5641 5640
5597 5592 5584 5581 5583 5584 5591 5595 5596 5587 5585 5594 5597 5601 5604 5605 5609 5622 5634 5643 5649 5654 5657 5658 5658 5658 5658 5659 5658 5655 5653 5651 5650 5650 5648 5645 5643 5641 5639 5637 5636 5634 5632 5631
5600 5593 5588 5584 5581 5581 5598 5597 5591 5591 5597 5600 5603 5607 5611 5615 5622 5631 5640 5646 5651 5654 5658 5658 5656 5655 5655 5655 5653 5650 5648 5648 5647 5645 5642 5640 5639 5637 5634 5631 5629 5628 5625 5623
5609 5606 5598 5595 5592 5600 5603 5601 5602 5603 5603 5606 5609 5613 5617 5621 5626 5633 5640 5646 5651 5655 5656 5656 5655 5654 5653 5652 5651 5648 5646 5645 5643 5639 5637 5635 5634 5631 5628 5625 5623 5620 5617 5615
5622 5621 5611 5605 5607 5608 5606 5606 5607 5607 5608 5611 5615 5618 5622 5623 5629 5635 5640 5646 5652 5655 5655 5655 5653 5651 5650 5650 5648 5646 5644 5642 5638 5634 5632 5630 5628 5625 5622 5619 5616 5612 5609 5607
5629 5627 5616 5610 5611 5611 5610 5609 5610 5611 5612 5614 5618 5622 5626 5629 5634 5639 5643 5648 5652 5654 5655 5655 5653 5651 5650 5649 5647 5645 5642 5639 5634 5630 5627 5625 5622 5619 5617 5613 5608 5606 5603 5600
5638 5631 5620 5613 5615 5609 5609 5612 5614 5614 5615 5618 5620 5624 5630 5634 5637 5641 5645 5649 5651 5652 5654 5653 5652 5652 5651 5649 5646 5643 5641 5637 5632 5627 5623 5620 5618 5616 5613 5609 5605 5601 5598 5596